Погода в Шарковщине

Погода в Шарковщине : погода сейчас, прогноз погоды и архив. Всё, что Вы хотите узнать о погоде в Шарковщине!

Хотите узнать прогноз погоды в Шарковщине? Тогда Вам сюда: Погода в Шарковщине

Поиск расширенной информации на нашем сайте:

Другие новости

Новости СМИ2

Главная страница сайта

Новости сайта

02.10.2013

Напоминаем, что на нашем новом сайте вы можете получить высокодетализированные прогнозы погоды по пунктам России, СНГ и мира (включающие важные для авиации метеовеличины, такие как направление и скорость ветра, видимость, явления погоды, количество и форма облачности, нижняя и верхняя граница облачности), а также ознакомиться с разнообразными материалами по авиационной метеорологии и подборкой полезных ссылок на эту тему.

Сайт Метеоцентр.Азия посвящён разработке технологий оптимизации авиаметеорологического обслуживания, включая проектирование и перспективное создание нескольких автоматизированных авиаметеорологических систем:
- система выпуска высокодетальных прогностических карт явлений погоды для нижнего воздушного пространства по России и ближнему зарубежью;
- система верификации прогнозов TAF (выпускаемых синоптиками официальных АМСГ РФ и ближнего зарубежья) и AUTOTAF (выпускаемых сайтом Метеоцентр.Азия) - выявление ошибок, онлайн-сопоставление с фактической погодой METAR, автоматическое внесение коррективов в прогнозы при резком отклонении фактической погоды от прогноза, подсчёт оправдываемости прогнозов по элементам и в целом;
- система обработки, анализа и отображения авиаметеорологической информации для применения провайдерами метеорологической информации.

Рекомендуем: http://vseprint.ru/ постер в дар ессентуки.

Погода в Шарковщине - сегодня

Время (UTC), дата Ветер
(°,м/с) 
Видим.   Явления Облачность Т
(°С)
Тd
(°С)
f(%) Тe
(°С)
Pmin
(гПа)
dP
(гПа)
Po
(мм)
O2
(г/м3)
Тmin Tmax R s Состояние
почвы
21 23.04.17 250 (З) 20000 м    ясно 
+0.6 -2.3 81 +1  1010.4  1.5  746  300           
00 24.04.17 тихо ()   18000 м    ясно 
-1.6 -2.8 92 -2  1011.2  0.6  746  303           
06 24.04.17 230 (ЮЗ) 23000 м    ясно 
+2.1 -3.8 65 +3  1011.7  0.7  747  299  -3         
09 24.04.17 240 (ЮЗ) 30000 м    10/6 600 м верхняя 
[Cu med, cong|Ci fib]
+7.3 -4.7 42 +7  1011.4  747  293           
12 24.04.17 250 (З) 35000 м    10/8 600 м верхняя 
[Cu med, cong|Cs]
+8.5 -7.1 32 +8  1010.4  -0.9  746  292           
18 24.04.17 210 (ЮЗ) 20000 м  {ливн. осадки}  5/3 600 м верхняя 
[Sc diur, vesp|Ci fib]
+3 +1.2 88 +2  1011.7  0.5  747  297    +9.2  0.0     
21 24.04.17 180 (Ю) 18000 м    ясно 
+0.3 -0.5 94 1011.9  747  301           
00 25.04.17 180 (Ю) 20000 м    ясно 
-0.3 -1.5 92 -1  1011.3  -0.6  746  301           
03 25.04.17 180 (Ю) 20000 м    6/3 600 м средняя, верхняя 
[Cu hum|Ac trans|Ci fib]
+0.4 -1.3 88 1010.3  -1  745  300           
06 25.04.17 180 (Ю) 20000 м    9/9 600 м 
[Sc]
+3.7 +0 77 +2  1009.9  -0.2  745  296  -0.5         
09 25.04.17 190 (Ю) 6-10{11}  22000 м    10/8 600 м средняя 
[Cu med, cong|As trans]
+7.8 +1.9 66 +6  1008.9  -0.7  745  291           
12 25.04.17 180 (Ю) 6-13{13}  27000 м    10/8 600 м средняя 
[Cu med, cong|As op]
+11.4 +0.4 47 +10  1006.6  -2.1  743  287           
18 25.04.17 160 (Ю) 4{12}  28000 м    10/3 600 м средняя 
[Sc diur, vesp|As op]
+11 +2.5 56 +10  1002.4  -2.4  740  286    +12.1       
21 25.04.17 250 (З) 6-11{15}  9000 м  слаб. ливневой дождь  10/6 300 м кучево-дожд., средняя 
[Cb calv|As op]
+9 +6.7 85 +7  1002.8  0.3  740  288           
00 26.04.17 230 (ЮЗ) 3{11}  17000 м  {ливн. осадки}  10/4 600 м средняя 
[Sc|As trans]
+7.5 +5.8 89 +7  1003.4  0.4  741  289           
03 26.04.17 240 (ЮЗ) 8000 м  слаб. ливневой дождь  10/8 600 м кучево-дожд., средняя 
[Cb calv|As op]
+4.7 +3 89 +3  1005.8  2.3  742  294         
06 26.04.17 210 (ЮЗ) 20000 м  {ливн. осадки}  9/9 600 м 
[Sc]
+4.4 +2.4 87 +3  1007.1  1.3  743  294  +4.1       
09 26.04.17 210 (ЮЗ) 21000 м    10/8 600 м средняя 
[Cu hum|Ac As]
+5.1 +3.2 88 +4  1008.3  1.2  744  294           
12 26.04.17 240 (ЮЗ) 4{10}  24000 м    10/4 600 м верхняя 
[Cu med, cong|Ci fib]
+8.4 -0.5 53 +7  1009.4  1.2  745  291           
15 26.04.17 240 (ЮЗ) 4{10}  21000 м    10/5 600 м средняя 
[Cu med, cong|Ac As]
+8.3 -1.7 49 +7  1010.5  0.9  746  292           
18 26.04.17 220 (ЮЗ) 20000 м    10/3 600 м средняя, верхняя 
[Sc diur, vesp|Ac trans|Ci fib]
+6 +0 65 +7  1011.7  1.2  747  294    +8.9       
21 26.04.17 230 (ЮЗ) 20000 м    10/0 средняя, верхняя 
[Ac trans|Ci fib]
+3.9 -0.1 75 +5  1013.1  1.3  748  297           
00 27.04.17 200 (Ю) 20000 м    10/0 средняя, верхняя 
[Ac trans|Ci fib]
+2.7 +0.3 84 +3  1013.1  748  298           
03 27.04.17 170 (Ю) 20000 м    10/0 средняя 
[Ac As]
+2.8 +0.7 86 +4  1012.9  -0.2  748  298           
06 27.04.17 230 (ЮЗ) 22000 м    10/0 средняя, верхняя 
[Ac As|Cc]
+5.3 +1.5 76 +6  1013.7  0.8  748  295  +2.5         
Время (UTC), дата Ветер
(°,м/с) 
Видим.   Явления Облачность Т
(°С)
Тd
(°С)
f(%) Тe
(°С)
Pmin
(гПа)
dP
(гПа)
Po
(мм)
O2
(г/м3)
Тmin Tmax R s Состояние
почвы

Для получения пояснительной информации подведите курсор к названию столбца.

ПОГОДА в Шарковщине - архив

Всё, что Вы хотите узнать о погоде в Шарковщине - удобно и подробно!

Выберите нужную дату (начиная с 1 января 2015* года) и нажмите кнопку "Найти".
Будут отображены архивные сводки погоды по пункту Шарковщина, начиная с указанной даты.


Отображать данные в формате CSV (для использования в таблицах Excel)


Внимание! Наш архив погоды предназначен исключительно для личного некоммерческого использования в познавательных целях. Если Вам необходимы официальные справки о состоянии погоды (для производственных, юридических, коммерческих и т.п. целей), обращайтесь в органы Росгидромета.

*Примечание: данная дата относится к архиву по метеостанциям СССР (Россия, СНГ, Балтия).
Архив по метеостанциям Зарубежной Европы и Азии (кроме Китая) хранится 10 дней, по другим регионам земного шара (Китай, Африка, Америка, Австралия, Океания) - 1 день.

Шарковщина - район местоположения метеостанции


Название, широта, долгота, высота метеостанции:
Шарковщина 55.4°ш. 27.5°д. 131 м над ур. моря [Беларусь]

Дополнительная информация

В oтличие oт бoльшинства пoгoдных сайтoв мы публикуем пoдрoбную метеoинфoрмацию в детальнoм прoфессиoнальнoм фoрмате.

Характеристики температуры и влажнoсти вoздуха измеряются на высoте 2 м в тени вдали oт зданий и деревьев.
Скoрoсть ветра измеряется на высoте 10 м (на урoвне рoста челoвека скoрoсть ветра ниже в 1.5-2 раза). Если метеoстанция нахoдится в гoрoде или в лесу, тo скoрoсть ветра занижена на 2-4 м/с пo сравнению с oткрытым местoм. Скoрoсть ветра над акватoриями крупных рек и oзёр, а также на вершинах хoлмoв на 2-5 м/с выше, чем в oбычных услoвиях.
Атмoсфернoе давление в разных тoчках местнoсти мoжет значительнo oтличаться oт давления на метеoстанции, в зависимoсти oт услoвий рельефа (при пoдъёме на 10 м давление пoнижается примернo на 1 мм рт.ст.).